| time (UTC) | temp F | wind direction | speed knots | gust knots | rain 1hr in | rain 24hr in | rain mn in | humidity % | barometer mb |
| 20260507070202 | 49 | 246 | 0.9 | 5.2 | 0.00 | 0.23 | 0.00 | 90 | 1008.0 |
| 20260507065702 | 49 | 304 | 0.9 | 5.2 | 0.00 | 0.23 | 0.00 | 90 | 1007.8 |
| 20260507065204 | 49 | 333 | 1.7 | 5.2 | 0.00 | 0.23 | 0.00 | 90 | 1007.6 |
| 20260507064700 | 49 | 306 | 1.7 | 6.1 | 0.00 | 0.23 | 0.00 | 90 | 1007.5 |
| 20260507064448 | 50 | 261 | 0.9 | 6.1 | 0.00 | 0.23 | 0.00 | 91 | 1007.7 |
| 20260507063648 | 50 | 246 | 0.9 | 5.2 | 0.00 | 0.23 | 0.00 | 91 | 1007.7 |
| 20260507063142 | 50 | 257 | 0.9 | 3.5 | 0.00 | 0.23 | 0.00 | 91 | 1007.5 |
| 20260507062637 | 50 | 232 | 0.9 | 2.6 | 0.00 | 0.23 | 0.00 | 91 | 1007.4 |
| 20260507062133 | 50 | 78 | 0.0 | 2.6 | 0.00 | 0.23 | 0.00 | 91 | 1007.4 |
| 20260507061631 | 51 | 78 | 0.0 | 1.7 | 0.00 | 0.23 | 0.00 | 91 | 1007.3 |
| 20260507061133 | 51 | 78 | 0.0 | 2.6 | 0.00 | 0.23 | 0.00 | 91 | 1007.2 |
| 20260507060632 | 51 | 78 | 0.9 | 2.6 | 0.00 | 0.23 | 0.00 | 91 | 1007.5 |
| 20260507060134 | 51 | 237 | 0.9 | 2.6 | 0.00 | 0.23 | 0.00 | 91 | 1007.7 |
| 20260507055635 | 51 | 20 | 0.0 | 2.6 | 0.00 | 0.23 | 0.00 | 92 | 1007.7 |
| 20260507055131 | 51 | 264 | 0.0 | 3.5 | 0.00 | 0.23 | 0.00 | 92 | 1007.7 |
| 20260507054631 | 51 | 258 | 0.0 | 3.5 | 0.00 | 0.23 | 0.00 | 92 | 1007.7 |
| 20260507054423 | 52 | 272 | 0.0 | 1.7 | 0.00 | 0.23 | 0.00 | 92 | 1007.9 |
| 20260507053631 | 52 | 272 | 0.0 | 0.9 | 0.00 | 0.23 | 0.00 | 92 | 1007.9 |
| 20260507053131 | 52 | 272 | 0.0 | 1.7 | 0.00 | 0.23 | 0.00 | 92 | 1007.8 |
| 20260507052631 | 52 | 272 | 0.0 | 1.7 | 0.00 | 0.23 | 0.00 | 92 | 1007.7 |
| 20260507052132 | 52 | 272 | 0.0 | 2.6 | 0.00 | 0.23 | 0.00 | 92 | 1007.7 |
| 20260507051631 | 52 | 272 | 0.0 | 2.6 | 0.00 | 0.23 | 0.00 | 92 | 1007.9 |
| 20260507051130 | 52 | 265 | 0.0 | 1.7 | 0.00 | 0.23 | 0.00 | 92 | 1007.7 |
| 20260507050629 | 52 | 28 | 0.0 | 0.9 | 0.00 | 0.23 | 0.00 | 92 | 1007.6 |
| 20260507050130 | 53 | 28 | 0.0 | 3.5 | 0.00 | 0.23 | 0.00 | 92 | 1007.5 |
| 20260507045629 | 53 | 28 | 0.9 | 3.5 | 0.00 | 0.23 | 0.00 | 92 | 1007.3 |
| 20260507045124 | 53 | 260 | 0.0 | 1.7 | 0.00 | 0.23 | 0.00 | 92 | 1007.6 |
| 20260507044617 | 53 | 260 | 0.0 | 2.6 | 0.00 | 0.23 | 0.00 | 92 | 1007.6 |
| 20260507044111 | 53 | 260 | 0.0 | 2.6 | 0.00 | 0.23 | 0.00 | 92 | 1007.7 |
| 20260507043610 | 53 | 237 | 0.0 | 0.9 | 0.00 | 0.23 | 0.00 | 92 | 1007.6 |
| 20260507043108 | 53 | 237 | 0.0 | 1.7 | 0.00 | 0.23 | 0.00 | 92 | 1007.7 |
| 20260507042608 | 54 | 237 | 0.0 | 1.7 | 0.00 | 0.23 | 0.00 | 92 | 1007.7 |
| 20260507042356 | 54 | 237 | 0.0 | 0.9 | 0.00 | 0.23 | 0.00 | 92 | 1007.8 |
| 20260507041602 | 54 | 237 | 0.0 | 3.5 | 0.00 | 0.23 | 0.00 | 92 | 1007.9 |
| 20260507041102 | 54 | 232 | 0.9 | 3.5 | 0.00 | 0.23 | 0.00 | 92 | 1007.9 |
| 20260507040602 | 54 | 101 | 0.9 | 3.5 | 0.01 | 0.23 | 0.00 | 92 | 1007.7 |
| 20260507035604 | 55 | 255 | 0.0 | 2.6 | 0.01 | 0.23 | 0.23 | 92 | 1007.4 |
| 20260507035104 | 55 | 205 | 0.0 | 3.5 | 0.01 | 0.23 | 0.23 | 92 | 1007.2 |
| 20260507034603 | 56 | 205 | 0.9 | 3.5 | 0.01 | 0.23 | 0.23 | 92 | 1007.2 |
| 20260507034102 | 56 | 205 | 0.9 | 4.3 | 0.01 | 0.23 | 0.23 | 92 | 1007.1 |
| 20260507033600 | 56 | 298 | 0.9 | 4.3 | 0.01 | 0.23 | 0.23 | 93 | 1007.0 |
| 20260507033103 | 57 | 171 | 0.9 | 2.6 | 0.01 | 0.23 | 0.23 | 93 | 1007.0 |
| 20260507032604 | 57 | 192 | 0.9 | 2.6 | 0.01 | 0.23 | 0.23 | 93 | 1006.9 |
| 20260507032101 | 57 | 294 | 0.9 | 7.0 | 0.01 | 0.23 | 0.23 | 93 | 1006.8 |
| 20260507031601 | 58 | 274 | 1.7 | 7.0 | 0.01 | 0.23 | 0.23 | 93 | 1006.9 |
| 20260507031103 | 58 | 275 | 0.9 | 5.2 | 0.01 | 0.23 | 0.23 | 94 | 1007.0 |
| 20260507030600 | 59 | 271 | 0.9 | 5.2 | 0.00 | 0.22 | 0.22 | 94 | 1007.0 |
| 20260507030053 | 59 | 264 | 0.9 | 5.2 | 0.00 | 0.22 | 0.22 | 94 | 1006.6 |
| 20260507025547 | 59 | 53 | 0.9 | 5.2 | 0.00 | 0.22 | 0.22 | 94 | 1006.5 |
| 20260507025042 | 59 | 200 | 0.9 | 2.6 | 0.00 | 0.22 | 0.22 | 94 | 1006.5 |
| 20260507024834 | 59 | 109 | 0.0 | 2.6 | 0.00 | 0.22 | 0.22 | 94 | 1006.5 |
| 20260507024038 | 59 | 109 | 0.9 | 2.6 | 0.00 | 0.22 | 0.22 | 94 | 1006.4 |
| 20260507023913 | 59 | 132 | 0.0 | 2.6 | 0.00 | 0.22 | 0.22 | 94 | 1006.3 |
| 20260507023907 | 59 | 132 | 0.9 | 2.6 | 0.00 | 0.22 | 0.22 | 94 | 1006.3 |
| 20260507022535 | 59 | 268 | 0.0 | 2.6 | 0.00 | 0.22 | 0.22 | 94 | 1006.2 |
| 20260507022035 | 59 | 268 | 0.9 | 2.6 | 0.00 | 0.22 | 0.22 | 94 | 1006.1 |
| 20260507021532 | 59 | 265 | 0.0 | 2.6 | 0.00 | 0.22 | 0.22 | 94 | 1006.2 |
| 20260507021326 | 59 | 265 | 0.9 | 2.6 | 0.00 | 0.22 | 0.22 | 94 | 1006.2 |
| 20260507020826 | 59 | 267 | 0.9 | 4.3 | 0.00 | 0.22 | 0.22 | 94 | 1006.1 |
| 20260507020031 | 59 | 207 | 0.9 | 4.3 | 0.00 | 0.22 | 0.22 | 94 | 1006.2 |
| 20260507015531 | 59 | 241 | 0.9 | 6.1 | 0.00 | 0.22 | 0.22 | 94 | 1006.3 |
| 20260507015031 | 59 | 252 | 0.9 | 6.1 | 0.00 | 0.22 | 0.22 | 94 | 1006.3 |
| 20260507014530 | 59 | 119 | 0.9 | 5.2 | 0.00 | 0.22 | 0.22 | 94 | 1006.3 |
| 20260507014323 | 59 | 174 | 0.9 | 5.2 | 0.00 | 0.22 | 0.22 | 94 | 1006.3 |
| 20260507013530 | 59 | 267 | 0.9 | 5.2 | 0.00 | 0.22 | 0.22 | 94 | 1006.4 |
| 20260507013030 | 59 | 286 | 0.9 | 5.2 | 0.00 | 0.22 | 0.22 | 94 | 1006.3 |
| 20260507012818 | 59 | 126 | 0.9 | 2.6 | 0.00 | 0.22 | 0.22 | 94 | 1006.4 |
| 20260507012030 | 59 | 163 | 0.9 | 3.5 | 0.00 | 0.22 | 0.22 | 94 | 1006.4 |
| 20260507011530 | 59 | 157 | 0.9 | 3.5 | 0.00 | 0.22 | 0.22 | 94 | 1006.4 |
| 20260507011029 | 59 | 126 | 0.9 | 3.5 | 0.00 | 0.22 | 0.22 | 94 | 1006.4 |
| 20260507010525 | 59 | 135 | 0.9 | 3.5 | 0.00 | 0.22 | 0.22 | 94 | 1006.4 |
| 20260507010043 | 59 | 140 | 0.9 | 2.6 | 0.00 | 0.22 | 0.22 | 94 | 1006.4 |
| 20260507005524 | 59 | 112 | 0.9 | 5.2 | 0.00 | 0.22 | 0.22 | 94 | 1006.6 |
| 20260507005022 | 59 | 111 | 0.9 | 5.2 | 0.00 | 0.22 | 0.22 | 94 | 1006.4 |
| 20260507004521 | 59 | 80 | 0.9 | 4.3 | 0.00 | 0.22 | 0.22 | 94 | 1006.4 |
| 20260507004309 | 59 | 111 | 0.9 | 4.3 | 0.01 | 0.22 | 0.22 | 94 | 1006.2 |
| 20260507003521 | 59 | 243 | 0.9 | 4.3 | 0.01 | 0.22 | 0.22 | 94 | 1006.2 |
| 20260507003310 | 59 | 203 | 0.9 | 3.5 | 0.01 | 0.22 | 0.22 | 94 | 1006.2 |
| 20260507002519 | 59 | 159 | 1.7 | 4.3 | 0.01 | 0.22 | 0.22 | 94 | 1006.3 |
| 20260507002018 | 59 | 130 | 1.7 | 10.4 | 0.02 | 0.22 | 0.22 | 94 | 1006.2 |
| 20260507001520 | 59 | 216 | 1.7 | 10.4 | 0.03 | 0.22 | 0.22 | 94 | 1006.2 |
| 20260507001016 | 59 | 184 | 0.9 | 3.5 | 0.04 | 0.22 | 0.22 | 94 | 1006.2 |
| 20260507000514 | 59 | 137 | 0.9 | 2.6 | 0.04 | 0.22 | 0.22 | 94 | 1006.3 |
| 20260507000315 | 59 | 204 | 0.9 | 3.5 | 0.05 | 0.22 | 0.22 | 94 | 1006.3 |
| 20260506235515 | 59 | 109 | 0.9 | 3.5 | 0.05 | 0.22 | 0.22 | 94 | 1006.2 |
| 20260506235015 | 59 | 184 | 0.9 | 3.5 | 0.06 | 0.22 | 0.22 | 94 | 1006.1 |
| 20260506234513 | 59 | 198 | 0.9 | 3.5 | 0.06 | 0.22 | 0.21 | 94 | 1006.1 |
| 20260506234010 | 60 | 53 | 0.9 | 3.5 | 0.05 | 0.21 | 0.21 | 94 | 1006.2 |
| 20260506233510 | 60 | 212 | 0.9 | 4.3 | 0.05 | 0.21 | 0.21 | 94 | 1006.1 |
| 20260506233010 | 60 | 100 | 0.9 | 4.3 | 0.05 | 0.21 | 0.21 | 93 | 1006.1 |
| 20260506232509 | 60 | 185 | 0.9 | 2.6 | 0.05 | 0.21 | 0.20 | 93 | 1006.0 |
| 20260506232307 | 60 | 176 | 0.9 | 2.6 | 0.05 | 0.20 | 0.19 | 93 | 1006.2 |
| 20260506231510 | 60 | 217 | 0.9 | 2.6 | 0.04 | 0.19 | 0.19 | 93 | 1006.2 |
| 20260506231010 | 60 | 154 | 0.9 | 3.5 | 0.03 | 0.18 | 0.18 | 93 | 1006.3 |
| 20260506230511 | 60 | 196 | 0.9 | 7.8 | 0.04 | 0.18 | 0.17 | 93 | 1006.4 |
| 20260506230009 | 60 | 197 | 0.9 | 7.8 | 0.04 | 0.17 | 0.17 | 93 | 1006.5 |
| 20260506225508 | 60 | 186 | 0.9 | 3.5 | 0.04 | 0.17 | 0.17 | 93 | 1006.4 |
| 20260506225009 | 60 | 159 | 0.9 | 3.5 | 0.04 | 0.16 | 0.16 | 93 | 1006.4 |
| 20260506224507 | 60 | 191 | 0.9 | 2.6 | 0.05 | 0.16 | 0.16 | 93 | 1006.4 |
| 20260506224006 | 60 | 229 | 0.9 | 2.6 | 0.05 | 0.16 | 0.16 | 93 | 1006.5 |
| 20260506223507 | 60 | 138 | 0.9 | 3.5 | 0.05 | 0.16 | 0.16 | 93 | 1006.5 |
| 20260506223007 | 60 | 140 | 0.9 | 3.5 | 0.05 | 0.16 | 0.16 | 93 | 1006.5 |
| 20260506222507 | 60 | 126 | 0.9 | 2.6 | 0.05 | 0.16 | 0.16 | 93 | 1006.6 |
| 20260506222256 | 60 | 168 | 1.7 | 6.1 | 0.04 | 0.15 | 0.15 | 93 | 1006.6 |
| 20260506221508 | 60 | 173 | 0.9 | 6.1 | 0.04 | 0.15 | 0.15 | 93 | 1006.6 |
| 20260506221008 | 60 | 178 | 0.9 | 3.5 | 0.05 | 0.15 | 0.15 | 93 | 1006.6 |
| 20260506220509 | 60 | 207 | 0.9 | 5.2 | 0.04 | 0.14 | 0.14 | 93 | 1006.7 |
| 20260506220008 | 60 | 136 | 0.9 | 5.2 | 0.04 | 0.13 | 0.13 | 93 | 1006.8 |
| 20260506215503 | 60 | 124 | 0.9 | 2.6 | 0.04 | 0.13 | 0.13 | 93 | 1006.7 |
| 20260506215004 | 60 | 127 | 1.7 | 7.8 | 0.03 | 0.12 | 0.12 | 93 | 1006.7 |
| 20260506214557 | 60 | 150 | 0.9 | 3.5 | 0.03 | 0.11 | 0.11 | 93 | 1006.7 |
| 20260506214543 | 60 | 98 | 1.7 | 7.8 | 0.03 | 0.11 | 0.11 | 92 | 1006.7 |
| 20260506213503 | 60 | 188 | 1.7 | 7.0 | 0.03 | 0.11 | 0.11 | 92 | 1006.8 |
| 20260506213004 | 60 | 171 | 1.7 | 7.0 | 0.04 | 0.11 | 0.11 | 92 | 1006.8 |
| 20260506212503 | 60 | 200 | 1.7 | 4.3 | 0.04 | 0.11 | 0.11 | 92 | 1006.9 |
| 20260506212004 | 60 | 175 | 1.7 | 7.8 | 0.04 | 0.11 | 0.11 | 92 | 1007.0 |
| 20260506211502 | 60 | 134 | 1.7 | 7.8 | 0.05 | 0.11 | 0.11 | 92 | 1007.0 |
| 20260506211255 | 60 | 117 | 1.7 | 4.3 | 0.04 | 0.10 | 0.10 | 93 | 1007.2 |
| 20260506210501 | 60 | 80 | 1.7 | 7.0 | 0.05 | 0.10 | 0.10 | 92 | 1007.1 |
| 20260506210252 | 61 | 132 | 1.7 | 7.0 | 0.04 | 0.09 | 0.09 | 92 | 1007.2 |
| 20260506205500 | 61 | 186 | 1.7 | 6.1 | 0.04 | 0.09 | 0.09 | 92 | 1007.1 |
| 20260506205001 | 61 | 138 | 0.9 | 3.5 | 0.04 | 0.09 | 0.09 | 93 | 1007.1 |
| 20260506204502 | 61 | 301 | 0.9 | 3.5 | 0.03 | 0.08 | 0.08 | 93 | 1007.2 |
| 20260506204004 | 61 | 207 | 0.9 | 3.5 | 0.03 | 0.08 | 0.08 | 93 | 1007.2 |
| 20260506203505 | 62 | 191 | 0.9 | 3.5 | 0.03 | 0.08 | 0.08 | 92 | 1007.2 |
| 20260506203002 | 62 | 180 | 0.0 | 1.7 | 0.02 | 0.07 | 0.07 | 92 | 1007.1 |
| 20260506202458 | 62 | 173 | 0.9 | 1.7 | 0.03 | 0.07 | 0.07 | 92 | 1007.2 |
| 20260506201950 | 62 | 174 | 0.9 | 1.7 | 0.02 | 0.06 | 0.06 | 92 | 1007.2 |
| 20260506201447 | 62 | 174 | 0.9 | 4.3 | 0.02 | 0.06 | 0.06 | 92 | 1007.3 |
| 20260506200939 | 62 | 246 | 0.9 | 4.3 | 0.03 | 0.06 | 0.05 | 92 | 1007.2 |
| 20260506200439 | 62 | 184 | 0.9 | 3.5 | 0.02 | 0.05 | 0.05 | 92 | 1007.2 |
| 20260506195933 | 62 | 209 | 0.9 | 3.5 | 0.03 | 0.05 | 0.05 | 92 | 1007.3 |
| 20260506195819 | 62 | 103 | 0.9 | 3.5 | 0.03 | 0.05 | 0.05 | 92 | 1007.1 |
| 20260506195509 | 62 | 170 | 0.0 | 3.5 | 0.03 | 0.05 | 0.05 | 92 | 1007.1 |
| 20260506194433 | 62 | 134 | 0.9 | 3.5 | 0.04 | 0.05 | 0.05 | 92 | 1007.1 |
| 20260506193933 | 62 | 150 | 0.0 | 1.7 | 0.04 | 0.05 | 0.05 | 93 | 1007.2 |
| 20260506193435 | 63 | 150 | 0.9 | 2.6 | 0.04 | 0.05 | 0.05 | 93 | 1007.2 |
| 20260506193225 | 63 | 236 | 0.0 | 2.6 | 0.05 | 0.05 | 0.05 | 92 | 1006.9 |
| 20260506192430 | 63 | 323 | 0.0 | 0.9 | 0.04 | 0.04 | 0.04 | 92 | 1007.1 |
| 20260506192224 | 63 | 323 | 0.0 | 0.9 | 0.04 | 0.04 | 0.04 | 92 | 1007.3 |
| 20260506191432 | 63 | 323 | 0.0 | 1.7 | 0.04 | 0.04 | 0.04 | 92 | 1007.3 |
| 20260506190932 | 63 | 323 | 0.0 | 1.7 | 0.03 | 0.03 | 0.03 | 91 | 1007.5 |
| 20260506190431 | 63 | 323 | 0.0 | 1.7 | 0.03 | 0.03 | 0.03 | 91 | 1007.4 |
| 20260506185928 | 63 | 323 | 0.0 | 1.7 | 0.02 | 0.02 | 0.02 | 91 | 1007.5 |
| 20260506185517 | 63 | 323 | 0.9 | 3.5 | 0.02 | 0.02 | 0.01 | 90 | 1007.7 |
| 20260506185506 | 63 | 323 | 0.0 | 3.5 | 0.02 | 0.02 | 0.02 | 91 | 1007.6 |
| 20260506184431 | 63 | 281 | 0.9 | 2.6 | 0.01 | 0.01 | 0.01 | 89 | 1007.7 |
| 20260506183930 | 64 | 281 | 0.9 | 2.6 | 0.01 | 0.01 | 0.01 | 87 | 1007.7 |
| 20260506183426 | 65 | 281 | 0.9 | 2.6 | 0.01 | 0.01 | 0.00 | 84 | 1007.8 |
| 20260506182925 | 65 | 282 | 0.9 | 2.6 | 0.00 | 0.00 | 0.00 | 82 | 1007.7 |
| 20260506182425 | 67 | 130 | 0.9 | 7.8 | 0.00 | 0.00 | 0.00 | 79 | 1007.6 |
| 20260506181920 | 68 | 108 | 1.7 | 7.8 | 0.00 | 0.00 | 0.00 | 76 | 1007.5 |
| 20260506181714 | 68 | 211 | 1.7 | 7.0 | 0.00 | 0.00 | 0.00 | 74 | 1007.3 |
| 20260506180919 | 69 | 101 | 1.7 | 7.0 | 0.00 | 0.00 | 0.00 | 71 | 1007.4 |
| 20260506180420 | 70 | 178 | 1.7 | 6.1 | 0.00 | 0.00 | 0.00 | 69 | 1007.6 |
| 20260506175920 | 71 | 279 | 1.7 | 6.1 | 0.00 | 0.00 | 0.00 | 64 | 1007.4 |
| 20260506175414 | 71 | 217 | 0.9 | 8.7 | 0.00 | 0.00 | 0.00 | 64 | 1007.6 |
| 20260506175200 | 71 | 111 | 1.7 | 8.7 | 0.00 | 0.00 | 0.00 | 62 | 1007.4 |
| 20260506174409 | 72 | 105 | 1.7 | 13.0 | 0.00 | 0.00 | 0.00 | 63 | 1007.4 |
| 20260506173907 | 72 | 123 | 2.6 | 13.0 | 0.00 | 0.00 | 0.00 | 61 | 1007.4 |
| 20260506173405 | 72 | 141 | 2.6 | 8.7 | 0.00 | 0.00 | 0.00 | 62 | 1007.4 |
| 20260506172905 | 72 | 148 | 1.7 | 8.7 | 0.00 | 0.00 | 0.00 | 61 | 1007.4 |
| 20260506172405 | 73 | 191 | 1.7 | 7.0 | 0.00 | 0.00 | 0.00 | 62 | 1007.5 |
| 20260506171903 | 73 | 101 | 1.7 | 9.6 | 0.00 | 0.00 | 0.00 | 62 | 1007.5 |
| 20260506171400 | 73 | 143 | 1.7 | 9.6 | 0.00 | 0.00 | 0.00 | 62 | 1007.6 |
| 20260506170901 | 72 | 219 | 2.6 | 7.8 | 0.00 | 0.00 | 0.00 | 63 | 1007.6 |
| 20260506170401 | 73 | 227 | 1.7 | 7.0 | 0.00 | 0.00 | 0.00 | 62 | 1007.7 |
| 20260506165903 | 72 | 118 | 1.7 | 7.8 | 0.00 | 0.00 | 0.00 | 61 | 1007.7 |
| 20260506165405 | 72 | 154 | 2.6 | 7.8 | 0.00 | 0.00 | 0.00 | 64 | 1007.8 |
| 20260506164859 | 72 | 108 | 1.7 | 8.7 | 0.00 | 0.00 | 0.00 | 62 | 1007.9 |
| 20260506164353 | 72 | 112 | 1.7 | 8.7 | 0.00 | 0.00 | 0.00 | 62 | 1008.0 |
| 20260506164140 | 72 | 92 | 1.7 | 5.2 | 0.00 | 0.00 | 0.00 | 63 | 1008.1 |
| 20260506163340 | 72 | 96 | 0.9 | 5.2 | 0.00 | 0.00 | 0.00 | 63 | 1008.1 |
| 20260506162833 | 71 | 159 | 0.9 | 6.1 | 0.00 | 0.00 | 0.00 | 64 | 1008.2 |
| 20260506162329 | 71 | 258 | 1.7 | 6.1 | 0.00 | 0.00 | 0.00 | 65 | 1008.3 |
| 20260506161830 | 71 | 71 | 1.7 | 6.1 | 0.00 | 0.00 | 0.00 | 65 | 1008.4 |
| 20260506161330 | 71 | 126 | 1.7 | 7.0 | 0.00 | 0.00 | 0.00 | 65 | 1008.6 |
| 20260506161119 | 71 | 144 | 1.7 | 7.0 | 0.00 | 0.00 | 0.00 | 65 | 1008.7 |
| 20260506160609 | 70 | 115 | 2.6 | 12.2 | 0.00 | 0.00 | 0.00 | 65 | 1009.0 |
| 20260506160525 | 71 | 109 | 1.7 | 7.8 | 0.00 | 0.00 | 0.00 | 66 | 1008.9 |
| 20260506160006 | 70 | 122 | 1.7 | 7.0 | 0.00 | 0.00 | 0.00 | 66 | 1009.1 |
| 20260506155940 | 71 | 104 | 2.6 | 12.2 | 0.00 | 0.00 | 0.00 | 66 | 1009.0 |
| 20260506154330 | 71 | 101 | 1.7 | 7.8 | 0.00 | 0.00 | 0.00 | 65 | 1009.1 |
| 20260506153832 | 71 | 119 | 2.6 | 7.8 | 0.00 | 0.00 | 0.00 | 65 | 1009.4 |
| 20260506153633 | 71 | 98 | 1.7 | 6.1 | 0.00 | 0.00 | 0.00 | 66 | 1009.4 |
| 20260506152833 | 71 | 187 | 1.7 | 4.3 | 0.00 | 0.00 | 0.00 | 66 | 1009.4 |
| 20260506152332 | 71 | 123 | 1.7 | 5.2 | 0.00 | 0.00 | 0.00 | 67 | 1009.5 |
| 20260506152120 | 71 | 248 | 2.6 | 7.8 | 0.00 | 0.00 | 0.00 | 67 | 1009.5 |
| 20260506151331 | 71 | 74 | 1.7 | 7.8 | 0.00 | 0.00 | 0.00 | 66 | 1009.4 |
| 20260506150830 | 71 | 240 | 1.7 | 8.7 | 0.00 | 0.00 | 0.00 | 70 | 1009.3 |
| 20260506150332 | 71 | 98 | 1.7 | 8.7 | 0.00 | 0.00 | 0.00 | 67 | 1009.4 |
| 20260506145826 | 71 | 223 | 1.7 | 7.0 | 0.00 | 0.00 | 0.00 | 68 | 1009.5 |
| 20260506145321 | 70 | 145 | 1.7 | 7.0 | 0.00 | 0.00 | 0.00 | 69 | 1009.6 |
| 20260506144814 | 70 | 123 | 1.7 | 7.0 | 0.00 | 0.00 | 0.00 | 68 | 1009.4 |
| 20260506144309 | 69 | 226 | 1.7 | 6.1 | 0.00 | 0.00 | 0.00 | 69 | 1009.4 |
| 20260506143805 | 69 | 107 | 2.6 | 6.1 | 0.00 | 0.00 | 0.00 | 70 | 1009.4 |
| 20260506143305 | 69 | 129 | 1.7 | 6.1 | 0.00 | 0.00 | 0.00 | 70 | 1009.5 |
| 20260506142804 | 69 | 227 | 0.9 | 6.1 | 0.00 | 0.00 | 0.00 | 69 | 1009.6 |
| 20260506142558 | 69 | 144 | 1.7 | 6.1 | 0.00 | 0.00 | 0.00 | 71 | 1009.4 |
| 20260506142056 | 69 | 126 | 1.7 | 6.1 | 0.00 | 0.00 | 0.00 | 70 | 1009.2 |
| 20260506141305 | 68 | 173 | 1.7 | 5.2 | 0.00 | 0.00 | 0.00 | 73 | 1009.2 |
| 20260506140805 | 68 | 192 | 2.6 | 5.2 | 0.00 | 0.00 | 0.00 | 72 | 1009.2 |
| 20260506140300 | 67 | 132 | 1.7 | 5.2 | 0.00 | 0.00 | 0.00 | 73 | 1009.4 |
| 20260506135803 | 67 | 145 | 1.7 | 7.0 | 0.00 | 0.00 | 0.00 | 74 | 1009.4 |
| 20260506135301 | 66 | 183 | 1.7 | 7.0 | 0.00 | 0.00 | 0.00 | 74 | 1009.3 |
| 20260506134801 | 66 | 155 | 0.9 | 7.0 | 0.00 | 0.00 | 0.00 | 75 | 1009.5 |
| 20260506134302 | 66 | 109 | 0.9 | 7.0 | 0.00 | 0.00 | 0.00 | 75 | 1009.6 |
| 20260506133801 | 66 | 191 | 0.9 | 5.2 | 0.00 | 0.00 | 0.00 | 75 | 1009.7 |
| 20260506133302 | 66 | 77 | 0.9 | 5.2 | 0.00 | 0.00 | 0.00 | 75 | 1009.8 |
| 20260506132801 | 65 | 148 | 0.9 | 5.2 | 0.00 | 0.00 | 0.00 | 76 | 1009.9 |
| 20260506132301 | 65 | 119 | 1.7 | 6.1 | 0.00 | 0.00 | 0.00 | 76 | 1009.8 |
| 20260506131801 | 65 | 148 | 1.7 | 6.1 | 0.00 | 0.00 | 0.00 | 76 | 1010.0 |
| 20260506131302 | 65 | 239 | 1.7 | 7.8 | 0.00 | 0.00 | 0.00 | 76 | 1009.8 |
| 20260506130757 | 65 | 111 | 2.6 | 7.8 | 0.00 | 0.00 | 0.00 | 75 | 1009.8 |
| 20260506130250 | 65 | 129 | 1.7 | 7.0 | 0.00 | 0.00 | 0.00 | 75 | 1009.8 |
| 20260506125744 | 65 | 102 | 1.7 | 7.0 | 0.00 | 0.00 | 0.00 | 75 | 1010.0 |
| 20260506125238 | 65 | 218 | 0.9 | 7.0 | 0.00 | 0.00 | 0.00 | 76 | 1010.1 |
| 20260506124731 | 65 | 120 | 1.7 | 6.1 | 0.00 | 0.00 | 0.00 | 76 | 1010.0 |
| 20260506124226 | 65 | 80 | 1.7 | 6.1 | 0.00 | 0.00 | 0.00 | 76 | 1009.8 |
| 20260506123721 | 65 | 226 | 0.9 | 6.1 | 0.00 | 0.00 | 0.00 | 76 | 1009.7 |
| 20260506123220 | 64 | 173 | 1.7 | 6.1 | 0.00 | 0.00 | 0.00 | 76 | 1009.8 |
| 20260506122717 | 64 | 67 | 1.7 | 5.2 | 0.00 | 0.00 | 0.00 | 77 | 1009.9 |
| 20260506122216 | 64 | 227 | 1.7 | 7.0 | 0.00 | 0.00 | 0.00 | 77 | 1010.1 |
| 20260506121713 | 64 | 202 | 1.7 | 7.0 | 0.00 | 0.00 | 0.00 | 76 | 1010.0 |
| 20260506121214 | 64 | 129 | 0.9 | 3.5 | 0.00 | 0.00 | 0.00 | 77 | 1010.1 |
| 20260506120715 | 64 | 152 | 0.9 | 4.3 | 0.00 | 0.00 | 0.00 | 78 | 1010.1 |
| 20260506120211 | 63 | 217 | 0.9 | 4.3 | 0.00 | 0.00 | 0.00 | 78 | 1010.1 |
| 20260506115711 | 63 | 216 | 0.9 | 4.3 | 0.00 | 0.00 | 0.00 | 78 | 1010.1 |
| 20260506115512 | 63 | 72 | 0.9 | 4.3 | 0.00 | 0.00 | 0.00 | 78 | 1010.2 |
| 20260506114711 | 63 | 105 | 0.9 | 4.3 | 0.00 | 0.00 | 0.00 | 78 | 1010.4 |
| 20260506114211 | 63 | 163 | 0.9 | 4.3 | 0.00 | 0.00 | 0.00 | 79 | 1010.2 |
| 20260506113710 | 62 | 109 | 0.9 | 4.3 | 0.00 | 0.00 | 0.00 | 79 | 1010.4 |
| 20260506113207 | 62 | 156 | 0.9 | 2.6 | 0.00 | 0.00 | 0.00 | 79 | 1010.5 |
| 20260506112708 | 62 | 146 | 0.9 | 2.6 | 0.00 | 0.00 | 0.00 | 79 | 1010.5 |
| 20260506112208 | 62 | 215 | 0.9 | 5.2 | 0.00 | 0.00 | 0.00 | 79 | 1010.5 |
| 20260506111704 | 62 | 68 | 1.7 | 6.1 | 0.00 | 0.00 | 0.00 | 80 | 1010.5 |
| 20260506111202 | 61 | 211 | 1.7 | 6.1 | 0.00 | 0.00 | 0.00 | 80 | 1010.5 |
| 20260506110703 | 61 | 143 | 0.9 | 3.5 | 0.00 | 0.00 | 0.00 | 80 | 1010.4 |
| 20260506110451 | 61 | 167 | 0.9 | 3.5 | 0.00 | 0.00 | 0.00 | 80 | 1010.4 |
| 20260506105653 | 61 | 136 | 0.9 | 2.6 | 0.00 | 0.00 | 0.00 | 80 | 1010.6 |
| 20260506105154 | 61 | 101 | 0.9 | 7.0 | 0.00 | 0.00 | 0.00 | 80 | 1010.7 |
| 20260506104654 | 61 | 184 | 0.9 | 7.0 | 0.00 | 0.00 | 0.00 | 80 | 1010.6 |
| 20260506104151 | 61 | 131 | 0.0 | 2.6 | 0.00 | 0.00 | 0.00 | 80 | 1010.7 |
| 20260506103651 | 61 | 155 | 0.9 | 2.6 | 0.00 | 0.00 | 0.00 | 80 | 1010.4 |
| 20260506103150 | 61 | 155 | 0.9 | 5.2 | 0.00 | 0.00 | 0.00 | 80 | 1010.5 |
| 20260506102943 | 61 | 18 | 0.9 | 5.2 | 0.00 | 0.00 | 0.00 | 80 | 1010.4 |
| 20260506102149 | 60 | 239 | 0.9 | 4.3 | 0.00 | 0.00 | 0.00 | 80 | 1010.4 |
| 20260506101942 | 60 | 123 | 0.9 | 3.5 | 0.00 | 0.00 | 0.00 | 80 | 1010.5 |
| 20260506101149 | 60 | 99 | 0.9 | 6.1 | 0.00 | 0.00 | 0.00 | 80 | 1010.6 |
| 20260506100653 | 60 | 234 | 0.9 | 6.1 | 0.00 | 0.00 | 0.00 | 80 | 1010.6 |
| 20260506100151 | 60 | 124 | 0.9 | 3.5 | 0.00 | 0.00 | 0.00 | 80 | 1010.6 |
| 20260506095646 | 60 | 219 | 0.9 | 4.3 | 0.00 | 0.00 | 0.00 | 79 | 1010.6 |
| 20260506095145 | 60 | 219 | 0.9 | 4.3 | 0.00 | 0.00 | 0.00 | 79 | 1010.4 |
| 20260506094646 | 60 | 109 | 0.9 | 4.3 | 0.00 | 0.00 | 0.00 | 79 | 1010.5 |
| 20260506094144 | 60 | 163 | 0.9 | 3.5 | 0.00 | 0.00 | 0.00 | 79 | 1010.1 |
| 20260506093644 | 61 | 225 | 0.0 | 2.6 | 0.00 | 0.00 | 0.00 | 79 | 1010.4 |
| 20260506093142 | 61 | 183 | 0.9 | 2.6 | 0.00 | 0.00 | 0.00 | 79 | 1010.5 |
| 20260506092643 | 61 | 132 | 0.9 | 4.3 | 0.00 | 0.00 | 0.00 | 79 | 1010.5 |
| 20260506092429 | 61 | 190 | 0.9 | 4.3 | 0.00 | 0.00 | 0.00 | 78 | 1010.4 |
| 20260506091644 | 61 | 186 | 0.9 | 2.6 | 0.00 | 0.00 | 0.00 | 78 | 1010.2 |
| 20260506091143 | 61 | 175 | 0.9 | 3.5 | 0.00 | 0.00 | 0.00 | 78 | 1010.2 |
| 20260506090643 | 61 | 179 | 0.9 | 3.5 | 0.00 | 0.00 | 0.00 | 78 | 1010.4 |
| 20260506090144 | 61 | 143 | 0.0 | 1.7 | 0.00 | 0.00 | 0.00 | 77 | 1010.2 |
| 20260506085640 | 61 | 181 | 0.9 | 2.6 | 0.00 | 0.00 | 0.00 | 77 | 1010.2 |
| 20260506085143 | 61 | 181 | 0.9 | 3.5 | 0.00 | 0.00 | 0.00 | 77 | 1010.2 |
| 20260506084642 | 61 | 174 | 0.9 | 3.5 | 0.00 | 0.00 | 0.00 | 77 | 1010.4 |
| 20260506084139 | 62 | 185 | 0.0 | 2.6 | 0.00 | 0.00 | 0.00 | 76 | 1010.4 |
| 20260506083930 | 62 | 226 | 0.9 | 4.3 | 0.00 | 0.00 | 0.00 | 76 | 1010.2 |
| 20260506083139 | 62 | 142 | 0.9 | 4.3 | 0.00 | 0.00 | 0.00 | 76 | 1010.2 |
| 20260506082634 | 62 | 151 | 0.9 | 7.0 | 0.00 | 0.00 | 0.00 | 76 | 1010.2 |
| 20260506082419 | 62 | 112 | 0.9 | 7.0 | 0.00 | 0.00 | 0.00 | 76 | 1010.2 |
| 20260506081636 | 62 | 156 | 0.9 | 3.5 | 0.00 | 0.00 | 0.00 | 75 | 1010.2 |
| 20260506081136 | 62 | 156 | 0.9 | 3.5 | 0.00 | 0.00 | 0.00 | 75 | 1010.2 |
| 20260506080635 | 62 | 258 | 0.9 | 1.7 | 0.00 | 0.00 | 0.00 | 75 | 1010.2 |
| 20260506080136 | 62 | 266 | 0.9 | 4.3 | 0.00 | 0.00 | 0.00 | 74 | 1010.1 |
| 20260506073133 | 62 | 147 | 0.9 | 4.3 | 0.00 | 0.00 | 0.00 | 73 | 1009.9 |
| 20260506072633 | 62 | 117 | 0.9 | 4.3 | 0.00 | 0.00 | 0.00 | 73 | 1009.8 |
| 20260506072426 | 62 | 132 | 0.9 | 2.6 | 0.00 | 0.00 | 0.00 | 73 | 1009.8 |
| 20260506071632 | 62 | 311 | 0.9 | 3.5 | 0.00 | 0.00 | 0.00 | 72 | 1009.8 |
| 20260506071134 | 62 | 161 | 0.9 | 3.5 | 0.00 | 0.00 | 0.00 | 72 | 1009.7 |
| 20260506070630 | 62 | 209 | 0.9 | 3.5 | 0.00 | 0.00 | 0.00 | 72 | 1009.6 |